Temp
22 21 20 20 20 20 20 21 21 21 21 21 21 21 21 21 21 23 24 25 26 25 25 26 25 25 26 26 27 27 26 25 24 23 22 22 22 21 21 20 20 20 20 19 18 17 16 16 15 15 16 17 16 16 17 17 17 17 17 18 18 17 17 17 18 18 18 18 18 17 17 17 17 18 18 18 18 18 18 18 18 18 17 17 17 17
21 20 19 20 20 21 21 21 21 21 21 21 21 21 21 20 21 23 24 25 26 25 24 26 25 25 26 26 27 27 26 26 24 23 23 22 22 21 21 20 20 20 18 17 16 16 15 15 16 16 16 17 16 16 17 17 17 17 17 18 18 17 17 17 18 18 18 18 18 18 18 18 18 18 18 18 18 18 18 18 18 18 17 17 17 17
20 19 19 20 20 21 21 21 21 20 21 21 20 20 20 21 22 23 24 25 25 24 24 25 24 24 25 26 26 26 26 26 24 23 23 22 22 22 21 20 20 18 16 15 15 15 15 16 16 16 15 16 16 16 17 17 17 17 17 17 17 17 17 18 18 18 18 18 18 18 19 19 18 18 18 18 18 18 18 18 18 18 18 17 17 17
19 19 20 21 20 20 20 21 21 20 20 20 20 20 20 21 21 21 23 24 25 24 24 24 23 24 25 25 26 26 26 26 24 23 23 23 22 22 21 20 19 17 16 16 15 15 15 15 15 15 15 16 16 16 16 16 17 17 17 17 18 18 18 18 18 19 19 18 19 19 19 19 18 18 18 18 18 18 18 18 18 18 18 18 18 18
19 21 21 21 20 20 20 21 20 20 20 20 20 20 20 21 21 22 23 24 25 24 24 24 22 22 24 24 25 26 26 25 23 23 23 23 23 22 21 20 18 16 16 16 16 15 15 15 15 15 15 15 16 16 16 16 17 17 17 17 18 18 18 18 19 19 19 19 19 19 18 18 18 18 18 18 18 18 18 18 18 18 18 18 18 18
20 21 22 21 21 20 20 21 20 20 20 20 20 21 21 22 22 22 23 23 23 22 24 24 21 21 23 24 26 26 26 25 23 22 22 22 22 21 19 18 17 16 17 17 16 15 15 15 15 15 15 15 15 16 16 17 17 17 17 17 18 18 18 18 19 19 19 19 19 19 18 18 18 18 18 18 18 18 18 18 18 18 18 18 18 18
21 22 22 21 21 21 20 20 21 20 20 20 22 23 23 22 22 23 23 22 21 21 24 24 21 21 22 25 26 26 27 25 22 22 22 22 22 19 17 17 16 17 17 16 15 15 15 15 15 15 15 15 15 16 16 16 17 17 17 18 18 18 18 18 18 19 19 19 19 19 19 19 19 19 19 19 18 18 18 18 18 18 18 18 18 18
22 22 22 22 21 21 20 20 21 21 20 20 23 25 24 23 23 23 23 22 21 22 23 23 23 21 21 24 25 25 26 25 22 21 21 22 20 18 16 16 17 17 17 16 15 15 15 15 15 15 15 15 15 16 16 16 16 17 18 18 18 18 18 18 18 19 19 19 19 19 19 19 19 19 19 19 19 19 19 18 18 18 18 18 18 18
23 22 22 22 21 20 21 21 22 22 21 22 24 25 25 24 24 24 23 22 22 22 21 22 23 21 21 23 25 25 25 25 23 21 21 21 19 17 16 16 17 17 16 16 15 15 15 15 15 15 15 15 15 16 16 16 17 18 18 18 18 19 19 18 18 19 19 19 20 20 20 20 20 19 19 19 19 19 19 18 18 18 18 18 18 18
23 23 23 23 21 21 22 23 23 22 22 24 25 25 25 24 24 24 23 22 21 21 20 22 22 21 21 22 24 25 25 25 22 20 20 20 17 16 16 16 17 16 16 15 15 15 15 15 15 15 15 16 16 16 17 18 18 18 18 18 18 19 19 19 19 19 19 20 20 20 20 20 20 19 19 19 19 18 18 18 18 18 18 18 18 18
22 23 24 23 23 23 23 24 23 23 23 25 25 24 24 23 23 23 22 21 21 20 21 22 22 22 21 21 23 23 24 23 21 19 19 18 17 16 16 16 16 16 15 15 15 15 15 15 15 16 16 16 16 16 17 18 17 17 18 18 18 18 18 18 19 19 19 20 20 20 20 20 20 20 19 19 19 19 19 18 18 18 18 18 18 18
22 23 23 24 25 25 25 25 24 24 24 25 24 23 22 22 21 21 21 21 20 20 21 22 22 22 21 21 22 22 23 22 20 19 18 17 17 16 16 16 16 15 15 15 15 15 15 15 15 15 15 15 15 15 16 16 16 17 17 17 17 17 17 18 18 19 19 20 20 20 20 20 20 20 19 19 19 19 19 18 18 18 18 18 18 18
22 23 23 24 26 26 25 24 24 24 24 24 23 22 21 20 21 21 20 20 20 20 22 22 22 22 21 21 22 21 22 21 20 20 19 17 17 16 16 16 16 15 15 15 15 15 15 15 15 15 15 15 15 15 16 16 16 16 16 17 17 17 17 17 18 19 19 20 20 20 20 20 20 20 20 19 19 19 19 18 18 18 18 18 17 17
21 23 23 24 25 26 25 24 23 23 24 23 22 21 21 20 20 20 20 20 20 21 22 22 22 21 21 21 21 20 20 20 20 20 19 17 17 17 16 16 16 15 15 15 15 15 15 15 15 15 15 15 15 15 16 16 16 16 16 16 17 17 17 17 17 18 19 19 19 19 19 19 20 20 19 19 19 19 18 18 18 18 18 18 18 17
20 21 23 24 24 25 25 25 24 24 24 24 23 22 21 21 20 20 20 20 20 21 21 21 21 20 20 20 20 19 20 20 20 19 18 17 17 16 16 16 16 15 15 15 15 15 15 15 15 15 15 15 15 15 15 15 15 15 16 16 17 17 17 17 17 18 18 19 19 19 19 19 19 19 19 19 19 19 19 19 18 18 18 18 18 17
20 20 23 25 25 25 25 25 25 25 23 23 23 22 21 22 22 21 20 20 20 21 21 21 21 20 20 20 19 19 20 19 19 18 18 17 17 16 16 16 16 16 15 15 15 14 15 15 15 15 15 15 15 15 15 15 15 15 16 16 17 17 17 17 17 18 18 18 19 19 19 19 19 19 19 19 19 19 19 19 18 18 18 18 17 17
20 21 23 24 24 25 25 25 25 24 23 22 22 22 22 23 23 21 20 19 20 20 20 20 20 20 20 20 19 18 19 18 18 18 17 17 17 16 16 16 16 16 15 15 15 14 14 15 15 15 15 15 15 15 15 15 15 15 15 16 17 17 17 17 17 18 18 18 19 19 18 18 19 19 19 19 19 19 19 19 18 18 18 17 17 17
21 21 23 23 24 25 25 25 25 25 24 23 22 23 23 23 23 22 20 20 20 20 20 19 19 19 19 19 18 17 18 18 17 17 17 16 16 16 16 16 16 16 16 15 15 15 14 15 15 15 15 15 15 15 15 15 15 15 16 16 17 17 17 17 18 18 18 18 19 18 18 18 19 19 19 19 19 19 19 19 18 18 17 17 17 17
21 20 22 23 23 24 25 24 24 24 25 24 24 24 23 21 21 21 20 20 20 20 19 19 18 17 17 17 17 17 17 17 17 16 16 16 16 16 16 16 16 16 15 15 15 15 14 14 15 15 15 15 15 16 16 15 15 15 16 16 17 17 18 18 18 18 18 18 18 18 18 18 19 19 19 19 19 19 19 19 18 18 17 17 17 17
21 20 21 23 24 24 23 22 22 22 24 25 24 24 23 22 21 21 20 20 20 20 19 19 19 17 17 17 16 17 17 16 16 16 16 16 16 16 16 16 15 15 15 15 15 15 15 14 14 14 14 14 15 15 15 15 15 15 15 16 16 17 17 17 17 17 18 18 18 18 18 18 19 19 19 19 19 19 19 19 18 17 17 17 17 17
20 20 20 22 23 23 22 21 21 21 21 22 23 22 22 21 21 21 21 20 20 20 19 19 19 17 17 17 16 16 16 16 16 16 16 16 15 15 15 15 15 15 15 15 14 14 14 14 14 13 14 14 14 15 15 15 15 16 16 16 16 16 15 16 16 17 18 18 18 18 18 19 19 19 19 19 19 19 19 18 18 17 17 17 17 16
20 20 20 21 22 21 20 21 22 21 20 20 20 20 20 21 21 21 20 19 20 20 19 19 19 17 17 16 15 15 15 15 15 15 15 15 15 15 15 15 15 15 15 14 14 14 14 13 13 13 13 14 14 14 15 15 15 15 16 16 16 15 16 16 16 17 17 18 18 18 18 18 19 19 19 19 19 19 18 18 17 17 17 17 16 16
20 19 19 20 20 20 20 21 21 21 20 19 19 18 19 20 21 21 21 20 20 19 18 19 18 16 15 15 15 15 14 15 15 15 14 14 14 14 14 14 15 14 14 14 14 14 13 13 13 13 13 13 13 14 14 15 15 15 15 16 16 16 16 16 16 16 17 17 17 16 15 16 16 17 18 19 19 18 18 18 17 17 17 17 16 16
19 18 19 20 20 20 21 20 20 20 20 19 18 17 18 19 19 20 21 20 20 19 19 19 18 16 15 15 15 14 14 14 14 14 14 14 13 13 13 13 14 14 14 14 13 13 13 13 13 13 13 13 13 13 14 14 14 15 15 15 15 16 16 16 16 16 17 16 15 15 15 15 15 16 17 18 18 18 18 18 17 17 17 17 17 16
19 18 18 19 19 20 20 20 20 20 19 18 18 17 17 17 18 19 20 20 20 19 20 20 18 15 15 15 14 14 14 14 14 14 14 13 13 14 13 13 13 13 14 14 13 13 13 13 13 13 13 13 13 13 14 14 14 14 14 14 15 15 15 16 16 16 16 16 15 15 16 16 16 16 16 16 16 18 18 18 17 17 17 17 17 16
19 18 18 18 18 18 18 19 19 19 18 17 17 17 17 17 17 18 20 21 20 19 19 19 17 15 15 15 14 14 14 14 14 14 14 13 13 13 12 12 11 12 12 12 12 12 12 12 12 13 12 13 13 13 14 14 14 14 14 14 15 15 15 16 16 16 16 15 15 15 15 16 16 15 15 15 16 17 17 17 17 17 17 17 17 17
18 17 17 17 17 18 17 17 18 18 17 16 16 16 17 17 17 18 19 20 19 18 18 16 16 15 15 15 14 14 14 14 14 14 13 13 12 11 11 11 11 11 11 11 11 11 11 11 11 11 11 12 12 13 13 14 14 14 14 14 14 15 15 16 16 15 15 15 15 15 15 16 15 15 15 16 16 17 17 17 17 17 17 17 17 17
17 16 17 17 17 17 17 18 18 18 17 16 16 16 17 18 18 17 17 16 16 18 18 15 15 16 15 15 14 14 14 14 13 13 13 12 11 11 11 11 10 11 10 10 10 10 10 10 10 11 11 11 12 12 12 13 13 14 14 14 14 15 15 15 15 14 14 15 15 16 15 15 15 15 15 16 16 16 17 17 17 17 17 17 17 17
16 15 15 16 17 17 17 18 17 18 17 15 16 17 17 18 18 17 15 13 14 18 18 15 15 16 15 14 14 13 13 14 13 13 12 11 11 11 10 10 10 10 10 10 9 10 10 10 10 10 10 11 11 12 12 12 12 13 13 13 14 14 14 14 14 14 14 15 15 15 14 14 15 15 15 15 15 15 16 16 16 16 17 17 17 17
15 14 13 14 16 16 16 16 16 17 16 14 14 14 15 16 17 15 14 13 14 15 16 15 15 15 14 14 13 13 13 13 13 13 12 11 11 10 10 10 9 9 9 9 9 9 9 9 9 9 9 10 10 11 11 12 12 12 13 13 13 13 13 13 14 14 14 14 14 14 13 13 14 14 14 14 13 14 15 15 14 15 16 17 17 17
15 14 13 14 15 14 14 15 15 15 15 13 13 13 13 14 15 15 15 14 14 14 14 14 15 14 13 13 12 12 12 12 12 11 11 11 10 10 9 9 9 9 9 9 8 8 8 9 9 9 9 9 9 10 11 11 12 12 12 12 12 12 13 13 13 13 13 13 13 13 13 13 13 13 13 13 14 14 15 15 14 14 15 16 17 17
15 14 13 14 15 14 13 14 15 15 15 14 13 12 12 13 14 15 15 15 15 14 14 14 14 13 12 11 11 10 10 10 10 10 10 10 10 10 9 9 9 8 8 8 8 8 8 8 8 8 8 8 9 9 10 11 11 11 12 12 12 12 13 13 13 13 13 13 13 13 13 13 13 13 13 13 13 13 13 14 14 14 13 14 16 16
15 15 14 14 14 13 13 13 14 14 15 14 13 11 10 12 14 15 14 14 14 14 14 14 13 12 11 11 10 9 9 9 9 9 9 9 9 9 8 8 8 7 7 7 7 7 7 7 7 7 7 7 8 8 9 10 11 11 11 11 12 12 12 12 12 12 12 13 13 13 13 13 13 13 13 13 13 13 13 13 13 13 12 14 15 15
14 14 14 14 14 13 13 13 13 14 13 13 12 11 10 11 13 13 12 12 13 13 13 12 11 10 11 11 10 9 8 8 8 8 8 8 8 7 7 7 7 7 6 6 6 6 6 6 7 6 6 7 7 8 9 10 10 10 11 11 11 11 11 11 11 11 11 12 12 12 12 13 13 13 13 13 13 13 13 13 13 13 13 14 14 14
14 14 14 13 14 13 13 13 14 13 12 12 11 11 10 11 12 12 11 11 11 12 11 10 10 9 9 9 8 7 7 7 7 7 7 8 7 7 7 7 6 6 6 7 7 6 6 6 6 7 7 7 8 9 9 10 10 10 10 11 11 11 11 11 11 11 11 11 11 11 12 12 12 12 12 13 13 13 13 13 13 13 13 13 13 13
15 14 14 13 13 13 13 14 14 13 12 12 11 11 10 11 11 12 13 11 10 11 11 9 8 8 8 7 7 7 6 6 6 6 6 7 7 7 7 7 7 7 7 7 7 6 6 6 7 7 7 7 9 9 9 9 10 10 10 10 10 10 10 10 10 11 11 11 11 11 11 11 12 12 12 12 12 12 12 12 13 13 13 13 13 13
15 15 14 13 13 13 13 12 12 12 11 11 11 10 10 9 10 11 12 11 10 11 10 8 8 7 7 7 7 7 7 7 7 6 6 6 6 6 7 7 7 7 7 7 7 7 7 8 8 8 8 8 9 9 9 9 10 10 9 9 9 10 10 9 9 10 10 10 10 11 11 11 11 11 11 11 11 11 11 11 12 12 12 13 13 13
14 15 15 14 13 13 13 12 11 12 12 11 11 11 10 10 9 10 11 11 10 10 10 9 8 8 7 7 7 7 9 8 7 7 7 7 7 7 7 7 7 7 7 7 8 8 8 9 9 9 9 9 9 9 9 9 10 10 9 9 9 9 9 9 9 9 9 9 10 10 10 10 10 10 11 11 11 10 10 11 11 11 11 12 12 12
13 14 15 14 13 13 13 12 11 11 11 10 10 11 11 10 10 10 11 11 10 10 10 9 8 8 8 8 8 9 10 9 7 7 8 8 8 8 8 8 8 8 8 8 9 9 9 9 9 9 9 9 9 9 9 9 10 10 9 9 9 9 9 9 9 9 9 9 9 9 9 9 9 9 9 9 9 9 10 10 10 10 11 11 11 11
13 13 13 13 12 12 12 11 10 10 10 10 10 11 11 11 11 11 12 12 10 10 10 10 9 9 9 9 9 9 10 9 8 8 9 8 8 8 8 8 8 8 8 9 9 9 9 9 10 10 9 9 9 9 9 9 9 9 9 9 9 9 9 9 9 9 9 9 9 8 8 8 8 8 8 8 8 8 8 9 9 10 10 10 10 11
12 12 12 12 11 11 11 10 10 10 10 10 10 10 10 11 11 12 11 11 10 10 11 10 10 10 10 9 9 9 9 9 9 9 9 8 8 8 9 9 9 8 9 9 9 10 9 9 9 9 9 9 9 9 9 9 9 9 9 9 9 9 9 9 8 8 8 8 8 8 8 8 8 7 7 7 7 7 8 8 8 8 9 9 9 10
12 11 11 11 11 11 10 10 9 10 10 9 9 10 10 11 12 11 9 10 10 11 11 10 10 10 9 9 9 9 9 9 9 9 9 9 9 8 8 9 9 9 9 9 9 10 10 9 9 9 9 9 9 9 9 9 9 9 9 8 8 8 8 8 8 8 8 8 7 7 7 7 7 7 7 7 7 7 7 7 7 7 7 7 8 8
11 11 11 10 10 10 10 10 9 10 9 8 9 10 10 10 10 9 8 9 10 10 10 10 9 9 9 8 9 9 9 9 9 8 8 9 8 8 8 8 8 8 9 9 9 9 9 9 9 9 9 9 9 9 9 9 9 9 8 7 7 8 8 8 8 8 8 7 7 7 7 6 6 6 6 6 6 6 6 6 6 6 6 6 6 7
11 11 11 10 10 10 9 9 9 9 8 7 9 9 8 7 9 9 9 8 8 9 9 9 9 9 9 9 8 8 8 8 8 8 8 8 8 7 7 8 8 8 9 9 9 9 9 9 9 9 9 9 9 9 9 9 8 8 7 7 7 8 8 7 7 7 7 7 6 6 6 6 6 6 5 5 5 5 5 5 5 5 5 5 5 6
11 11 11 9 9 9 9 8 8 8 8 7 7 7 7 7 8 8 8 8 8 8 8 8 8 9 9 9 9 9 9 9 9 9 8 8 8 7 7 7 8 8 8 9 9 9 9 9 9 9 9 9 9 9 9 8 8 7 7 7 7 7 7 7 7 7 6 6 6 5 5 5 5 5 5 5 5 4 4 4 4 5 5 5 5 5
11 11 11 9 9 9 9 8 8 8 8 8 8 8 8 8 8 8 8 8 8 8 8 8 8 9 9 9 9 9 8 9 9 9 9 8 7 7 7 7 8 8 8 8 8 8 8 8 9 9 8 8 8 8 8 7 7 7 6 6 6 6 6 6 6 6 5 5 5 5 4 4 4 4 4 4 4 4 4 4 4 4 4 4 4 4
11 11 11 10 9 9 9 8 8 8 8 8 8 8 8 8 8 8 7 7 7 8 8 8 8 8 9 9 9 8 8 9 9 8 8 8 7 6 6 7 7 8 8 8 8 8 8 8 8 8 8 8 7 7 7 7 6 6 6 6 6 6 6 6 5 5 5 4 4 4 4 4 4 4 4 3 3 3 3 3 3 3 3 3 3 3
11 11 11 10 9 9 9 8 8 8 8 8 8 8 8 8 8 8 8 7 8 8 7 8 8 8 8 8 9 9 8 8 9 8 8 7 6 6 6 7 7 8 8 8 8 8 8 8 8 8 7 7 7 7 7 7 6 6 6 6 6 6 6 5 5 4 4 4 4 4 4 4 4 3 3 3 3 3 3 3 3 3 3 3 3 3
11 11 10 9 9 9 8 8 8 8 8 8 8 8 8 8 8 8 8 8 8 8 8 8 7 7 8 8 8 8 8 7 6 6 6 5 5 5 6 7 7 8 8 7 8 8 8 8 8 7 7 7 7 7 7 6 6 6 6 6 6 6 6 5 4 4 4 4 4 3 3 3 3 3 3 3 3 3 3 3 3 2 2 2 2 2
11 10 9 9 8 8 8 9 9 9 8 8 8 8 8 8 8 8 8 8 8 8 8 8 7 6 6 6 6 6 6 5 5 4 4 4 4 5 6 7 7 7 7 7 7 7 7 7 7 7 7 7 7 7 6 6 6 6 6 6 6 5 5 4 4 3 3 3 3 3 3 3 3 3 3 3 3 3 3 3 3 2 2 2 2 2
10 10 10 9 9 9 9 9 10 10 9 8 8 9 8 8 9 8 8 8 8 7 7 7 7 7 6 6 6 6 5 4 4 4 3 3 5 5 6 6 6 6 7 7 7 7 7 7 7 7 7 7 7 6 6 6 6 6 6 6 5 5 4 4 4 4 3 3 3 3 3 3 3 3 3 3 3 3 2 2 3 2 2 2 2 2
Height
751 760 764 762 762 761 760 760 760 760 760 761 763 765 765 765 761 750 741 734 733 742 742 737 739 737 730 725 720 717 719 725 730 734 738 740 740 743 745 745 745 747 750 751 756 761 764 769 771 772 775 779 780 780 782 785 788 790 791 791 793 795 796 796 798 799 801 803 805 806 808 809 810 811 812 812 813 814 815 816 817 817 818 818 819 819
753 763 762 757 758 757 755 756 757 759 760 762 764 766 766 765 761 749 741 736 733 741 742 734 738 736 726 722 718 716 720 724 727 732 737 739 740 741 742 744 746 750 754 757 760 764 767 772 773 773 776 778 778 778 779 783 786 789 791 792 793 794 796 797 798 800 802 803 805 806 808 809 810 811 812 813 813 814 816 817 818 818 818 819 819 819
761 763 757 752 753 754 754 754 757 760 761 763 765 768 769 763 757 748 738 735 734 740 741 734 738 735 721 717 716 714 717 719 722 725 729 733 737 740 741 743 747 753 759 761 762 763 765 767 768 770 773 776 780 782 782 783 787 790 791 792 793 794 795 797 799 800 802 804 806 807 809 810 811 812 813 814 814 815 817 817 818 818 818 819 819 819
767 758 749 749 751 754 756 754 756 761 762 764 765 769 769 760 760 755 742 736 733 736 738 734 737 732 720 718 716 712 713 715 719 720 721 725 730 734 737 743 748 754 760 762 763 764 765 766 768 771 772 773 781 788 788 787 787 789 791 791 792 793 794 796 798 800 802 804 806 808 809 811 811 812 813 814 815 816 817 817 818 818 818 819 819 819
761 747 741 747 750 753 756 754 757 762 764 763 761 765 764 756 757 754 745 738 732 730 730 733 742 735 724 724 719 712 712 715 719 721 723 726 727 731 738 745 750 753 758 760 762 764 766 768 769 771 772 771 773 780 786 787 787 788 790 791 792 792 794 796 798 800 802 804 806 807 809 811 812 813 814 815 816 817 817 817 817 818 819 819 820 820
753 740 738 746 748 751 755 755 755 760 765 763 757 754 753 750 750 748 745 743 745 743 729 731 752 746 727 723 719 714 714 716 721 724 727 730 732 738 744 748 752 754 756 758 761 764 766 768 769 770 772 772 771 773 777 781 784 787 790 791 792 793 795 796 798 800 802 803 804 805 807 808 810 812 813 814 815 816 816 817 817 818 819 819 820 821
744 735 738 744 746 749 754 754 750 753 765 765 749 740 741 744 747 746 745 748 754 751 731 730 752 750 730 721 719 717 717 721 726 728 728 731 736 743 748 750 752 754 755 758 761 763 765 767 769 770 771 771 772 772 774 778 781 785 788 790 791 793 795 796 798 800 802 803 804 805 806 806 808 810 812 813 814 815 816 817 817 817 818 819 820 821
735 735 739 741 744 749 754 752 744 745 760 759 739 731 736 740 744 742 743 750 750 744 735 731 740 745 736 724 720 720 719 723 730 734 734 735 740 747 750 751 751 753 755 758 762 764 766 767 767 768 770 771 772 773 775 777 780 783 786 788 791 793 794 796 798 799 801 802 803 805 806 807 809 810 811 812 813 815 816 816 817 817 818 819 820 821
730 734 736 737 744 749 748 741 734 738 750 743 727 727 730 731 736 736 740 747 745 747 749 735 732 746 745 728 720 721 719 723 731 737 738 739 746 751 752 752 752 754 756 758 762 765 765 766 766 766 768 771 772 773 776 778 779 782 784 787 789 791 793 794 796 798 800 802 803 805 806 807 808 809 810 812 813 815 815 816 817 817 817 818 819 821
729 728 727 731 740 742 736 728 725 733 739 730 722 726 726 728 733 733 739 744 746 756 757 739 731 746 749 731 721 722 721 725 735 741 742 744 751 752 752 753 753 755 758 759 762 763 762 763 764 764 766 769 770 771 772 773 775 778 781 785 788 790 791 793 795 797 799 802 803 804 805 806 807 808 810 812 813 814 815 816 816 817 818 818 819 820
727 722 722 725 728 726 723 721 720 724 725 722 723 728 729 734 736 736 740 744 755 764 753 737 732 741 749 738 727 727 724 726 737 744 748 750 753 754 754 754 754 755 758 760 762 762 762 762 762 761 763 767 769 770 770 768 771 775 779 783 786 789 791 792 793 796 798 800 802 803 804 805 806 807 809 811 813 814 815 816 817 818 818 819 819 820
728 726 723 718 714 713 715 717 717 717 719 721 726 731 738 744 744 746 748 749 764 767 746 733 731 737 750 745 735 731 724 725 733 739 746 752 754 755 754 754 755 755 757 760 763 764 763 764 764 762 762 767 770 772 772 771 773 776 779 782 785 788 791 792 793 795 797 799 801 803 804 805 806 807 809 811 812 814 815 816 817 818 819 819 820 821
731 726 722 715 708 707 714 720 721 718 719 724 729 737 750 758 758 760 760 759 766 758 737 731 733 740 750 745 738 735 728 728 730 731 738 746 750 753 753 754 755 756 758 759 761 763 763 764 766 765 766 770 773 774 774 773 774 777 779 781 784 787 790 791 793 795 797 800 802 804 805 806 807 808 810 811 813 815 816 817 818 819 819 819 820 821
737 726 718 718 712 706 711 722 728 725 722 726 732 740 753 764 770 773 768 766 764 751 736 732 734 744 752 746 741 740 735 731 729 730 738 744 748 751 752 754 756 757 758 759 761 762 763 765 768 768 769 772 774 775 774 773 774 776 779 781 784 787 789 791 793 795 797 800 802 805 807 808 809 810 811 813 814 816 817 818 819 819 820 820 820 821
747 740 723 718 716 708 708 714 719 720 721 724 725 733 744 751 759 767 763 761 761 751 741 739 742 752 759 754 747 741 737 734 731 732 740 748 752 754 756 758 759 760 761 762 764 763 762 766 769 769 769 771 774 776 775 774 775 776 778 781 784 787 789 791 793 795 797 800 802 805 808 809 811 812 813 814 815 817 818 818 819 819 820 820 821 821
746 743 720 710 709 706 708 707 706 715 726 725 722 731 740 735 737 751 756 755 755 752 750 750 752 756 756 752 748 742 740 741 741 740 742 749 754 756 762 764 762 763 763 764 765 763 762 766 768 767 767 770 774 775 774 775 775 776 779 781 783 786 789 791 793 795 797 800 802 805 807 810 812 813 814 814 816 817 818 819 819 819 820 820 821 822
743 738 716 709 709 704 706 705 703 713 725 726 727 732 730 720 723 742 757 758 756 756 759 761 761 759 755 754 754 749 746 748 751 751 750 753 755 757 762 765 765 764 763 763 764 763 762 764 766 767 767 769 771 773 774 775 777 778 780 781 783 786 789 791 793 795 796 798 801 804 807 809 812 813 814 815 816 817 818 819 819 819 820 820 821 822
738 738 720 713 715 706 700 703 703 704 711 722 730 724 719 721 724 734 751 761 762 763 764 767 770 770 769 770 768 762 756 756 757 759 759 759 760 761 761 764 766 765 764 763 763 763 764 765 767 768 768 769 770 772 774 776 778 779 780 782 783 785 788 790 792 794 796 798 800 803 806 809 812 813 814 815 816 817 818 819 819 820 821 821 822 823
731 740 727 712 715 709 700 707 713 708 703 711 717 714 720 733 735 738 750 759 764 770 773 773 775 778 778 776 774 770 766 763 762 766 767 765 764 763 763 765 768 768 766 765 765 765 766 765 767 768 768 769 770 772 774 777 779 781 783 784 785 787 788 790 792 794 796 798 800 804 807 809 812 813 814 815 816 817 818 819 820 821 822 823 823 823
728 740 735 714 710 710 710 719 728 725 712 707 711 714 719 729 734 739 745 749 755 768 778 775 775 781 779 774 774 772 770 767 767 769 769 768 767 765 766 768 769 769 769 767 766 767 767 767 768 770 770 770 771 773 776 780 783 785 786 787 788 790 791 792 794 796 798 800 802 804 807 809 812 813 814 815 816 817 818 819 821 822 823 824 824 824
729 739 740 723 711 715 725 729 729 732 727 719 722 725 725 728 734 737 741 745 748 760 774 776 778 782 775 770 773 772 771 771 769 769 769 769 769 768 768 769 768 768 768 767 766 767 769 771 773 775 775 774 775 777 779 782 785 787 788 789 791 792 793 794 796 798 799 801 803 805 808 809 811 812 814 815 816 817 818 820 821 823 824 824 825 826
732 738 739 731 724 727 733 727 721 727 732 730 732 735 734 733 735 741 749 750 746 752 765 770 777 784 775 770 773 772 772 773 770 770 771 771 771 770 770 769 768 768 767 768 768 769 771 774 775 776 777 778 780 782 782 784 786 788 789 790 792 793 794 796 797 800 801 803 805 807 808 809 810 812 813 815 816 817 818 820 821 823 824 825 825 826
731 737 739 736 733 732 729 723 720 723 726 731 736 740 739 734 733 741 749 751 751 755 760 763 773 783 779 773 774 773 772 772 771 771 772 773 773 773 774 772 771 771 772 772 773 773 777 779 778 778 780 783 784 784 784 785 787 789 789 790 792 793 795 796 798 800 802 804 806 807 809 811 812 813 814 815 816 818 819 820 822 823 824 824 825 827
731 739 742 738 735 732 726 722 722 723 726 734 742 743 742 740 739 739 737 739 748 756 758 764 777 784 780 775 776 776 774 773 773 773 772 775 775 774 777 777 775 776 777 777 776 778 781 783 782 782 785 787 786 785 785 785 787 789 790 792 792 793 794 796 798 800 803 805 806 807 810 813 815 816 816 817 817 818 820 821 822 823 824 824 825 826
734 743 745 743 743 741 737 732 731 733 737 744 749 748 744 743 742 740 735 736 745 751 749 756 775 783 778 775 777 777 775 774 776 776 774 775 776 775 777 779 779 779 779 779 779 780 782 782 783 786 788 788 788 788 786 786 787 790 792 794 794 794 794 795 798 800 803 805 806 809 811 813 816 817 818 820 821 820 821 822 823 823 824 825 825 826
734 743 744 746 751 752 752 748 742 743 748 752 753 750 745 744 744 742 737 737 746 751 749 755 772 780 777 776 779 778 775 776 779 780 777 777 778 778 781 784 783 782 782 782 782 783 783 784 786 788 789 789 789 789 788 788 789 791 793 794 795 795 795 796 799 800 802 804 806 809 811 813 816 817 818 822 823 821 822 823 823 824 825 825 826 827
736 743 743 747 751 751 753 751 744 744 752 759 759 754 749 746 747 745 741 742 750 755 759 765 770 774 778 778 779 779 778 780 783 782 781 782 784 785 787 789 787 787 787 787 786 787 788 789 791 791 791 791 790 790 789 790 791 791 792 793 794 795 796 798 800 801 803 805 806 810 812 813 815 818 820 822 822 821 822 824 824 825 826 826 827 827
742 748 747 748 748 747 747 746 743 744 751 758 758 755 752 747 745 750 754 759 760 754 759 769 768 768 775 777 778 781 780 782 784 783 784 788 790 791 791 792 791 791 792 792 792 793 794 795 795 794 794 794 793 792 791 791 792 793 793 794 794 796 797 799 801 802 804 805 807 809 811 811 814 817 819 820 820 820 821 823 824 826 827 827 827 827
748 755 756 753 749 746 745 745 746 746 751 758 758 754 753 749 747 755 764 769 766 755 755 766 768 768 774 777 779 780 778 779 781 782 785 790 792 793 794 795 797 797 797 798 799 799 800 800 799 798 797 796 794 794 793 793 793 794 794 795 796 797 799 800 802 803 805 807 807 809 810 812 814 816 818 818 819 820 821 822 824 826 828 827 827 828
749 760 763 758 754 753 752 751 751 752 756 764 766 763 760 756 754 760 766 768 767 763 760 765 770 772 775 777 780 780 779 779 780 782 787 790 793 795 797 799 802 803 804 804 805 804 803 803 802 801 800 799 798 797 796 796 796 796 796 797 798 799 800 802 803 805 807 808 809 811 812 814 815 816 817 818 821 823 823 823 825 827 828 827 827 827
750 761 765 761 760 762 761 757 756 760 763 768 771 771 768 764 760 760 764 764 766 770 770 770 773 777 779 779 781 783 784 784 786 789 791 794 795 796 798 801 805 807 809 809 808 808 807 806 805 804 804 805 804 802 801 800 800 800 800 800 801 802 803 804 804 807 809 811 812 813 814 815 816 817 818 820 822 824 824 823 824 827 828 827 826 827
750 759 764 761 762 767 767 763 762 763 764 766 773 778 776 771 765 761 761 762 766 772 775 775 776 782 786 785 786 790 791 792 796 798 798 800 800 799 800 803 806 809 811 811 810 810 809 809 809 809 809 810 808 806 806 805 804 803 804 804 805 806 806 806 807 810 812 813 815 815 816 817 818 819 820 821 822 823 824 824 825 827 829 827 826 826
748 754 759 759 763 770 771 769 767 767 768 771 778 785 785 778 768 763 765 767 767 770 774 777 781 786 788 786 789 796 798 799 803 804 804 806 807 805 805 807 808 809 811 811 812 812 811 812 814 814 814 813 813 811 810 809 808 808 809 809 809 809 810 810 811 813 814 816 817 818 818 819 819 820 821 823 823 824 825 827 827 828 828 826 825 826
752 754 758 760 764 770 773 771 770 773 776 779 782 785 785 779 770 771 778 779 776 774 777 782 788 791 790 789 793 800 804 805 807 808 808 808 809 809 809 810 810 810 811 811 812 812 813 815 816 816 816 816 817 815 813 812 812 813 813 813 812 812 813 813 815 816 817 818 820 821 821 821 821 822 823 824 824 825 826 827 827 827 826 824 825 826
756 757 760 763 765 770 773 771 771 777 781 783 783 783 782 778 774 776 781 785 785 782 783 789 794 795 796 798 800 803 808 811 811 810 810 809 808 808 808 809 811 811 811 811 811 813 815 816 817 818 818 819 819 817 816 815 816 816 816 816 815 815 815 816 817 818 819 820 821 822 823 823 823 824 824 824 825 825 825 825 825 825 825 825 826 827
752 755 760 766 768 770 772 771 774 781 784 783 784 784 783 781 779 777 777 785 790 785 786 795 800 800 803 805 805 807 811 813 813 814 815 812 810 809 809 809 810 810 811 812 812 814 815 816 818 820 820 821 821 819 819 819 819 819 819 819 819 818 818 819 819 820 820 821 822 823 823 824 824 824 825 825 825 824 824 824 824 824 825 825 826 826
750 752 756 764 769 770 775 781 784 785 786 787 788 790 792 793 792 787 785 790 793 788 788 798 803 805 807 808 808 809 810 812 816 819 819 816 814 812 811 811 811 812 813 814 814 815 816 817 819 820 821 822 822 822 822 822 822 822 823 823 822 821 820 821 823 824 823 823 823 822 822 822 822 822 823 823 823 823 824 824 824 824 824 824 823 823
751 751 753 760 768 770 773 782 787 785 787 793 793 792 793 794 794 791 790 792 794 792 792 797 801 805 808 808 809 808 805 810 820 824 821 819 816 814 813 814 814 814 814 815 816 817 818 819 819 821 822 822 822 823 823 822 822 822 823 824 824 824 824 824 826 827 826 826 826 825 824 823 823 822 822 822 822 822 823 823 823 823 823 823 823 822
755 756 754 759 768 771 771 780 788 788 791 795 794 791 790 790 790 789 788 791 796 796 794 797 801 805 805 805 807 805 803 812 824 825 821 819 818 816 815 815 815 815 815 815 816 818 819 820 821 822 822 822 823 824 823 822 822 822 823 824 825 826 826 827 828 828 828 829 829 828 828 827 827 826 826 825 825 824 823 823 822 822 823 822 822 822
761 763 762 766 773 776 779 788 795 795 795 796 793 790 788 787 787 787 787 790 796 796 795 797 800 802 804 804 805 804 804 812 820 820 818 819 819 817 817 817 817 817 816 817 818 819 820 821 821 821 821 821 823 823 823 822 822 822 823 824 825 825 827 828 829 830 830 830 830 830 830 830 830 829 829 828 828 827 826 824 823 822 822 822 821 821
770 772 773 776 780 782 786 794 799 798 796 795 793 790 788 785 785 787 790 793 795 795 795 796 797 800 803 804 805 806 806 809 812 815 817 819 818 818 819 819 819 819 819 820 820 821 822 822 822 822 822 822 822 822 822 822 822 822 824 824 825 826 827 828 829 829 830 830 830 831 831 831 831 831 831 831 830 829 829 827 826 825 824 823 822 821
775 778 780 783 785 787 790 796 800 799 797 796 794 791 787 784 786 793 797 796 795 795 795 797 798 800 803 804 804 806 808 810 812 815 818 818 819 820 820 820 821 821 822 823 823 823 824 824 824 825 825 824 824 823 823 823 823 824 825 826 827 828 828 828 828 828 828 829 829 830 830 831 831 831 831 831 831 830 830 829 829 828 827 826 825 823
779 782 787 790 790 791 795 798 800 802 802 798 793 790 791 792 794 798 801 798 797 798 799 800 801 801 803 807 807 808 811 814 815 817 819 820 820 821 821 822 823 823 824 825 825 826 826 826 827 828 828 828 828 827 827 826 826 827 827 828 829 830 829 829 829 829 829 829 830 830 830 831 831 831 830 830 830 830 829 829 829 828 827 827 825 824
781 782 787 793 794 794 800 807 809 809 808 802 795 796 802 803 800 799 800 801 803 803 802 803 805 805 805 807 809 811 813 815 817 819 820 821 822 822 823 824 824 825 826 827 827 828 828 829 829 830 830 831 831 831 831 831 831 830 830 831 832 831 831 831 831 830 831 830 831 831 831 831 831 830 830 829 829 828 828 827 827 826 826 825 825 823
786 783 786 796 801 800 803 811 813 810 809 806 803 804 807 805 803 801 801 804 807 807 806 807 809 809 808 808 810 812 814 816 818 820 821 822 823 824 825 826 827 827 828 829 829 830 830 831 832 832 832 833 833 833 833 833 834 834 834 834 834 833 833 833 832 832 832 831 831 831 831 831 830 830 830 829 829 828 827 827 826 825 825 824 823 823
789 786 787 796 803 804 806 810 811 809 809 808 807 807 807 806 807 805 804 807 810 810 809 809 810 812 812 811 812 815 817 818 819 820 822 823 824 825 826 828 829 829 830 831 831 832 832 833 833 833 834 834 835 834 835 835 835 836 836 836 836 835 835 834 834 833 833 832 832 832 831 831 830 830 829 829 828 828 827 827 826 825 824 823 822 821
789 788 791 798 802 805 810 813 811 810 811 810 809 809 809 809 810 809 809 812 813 812 813 813 813 815 815 815 816 817 819 820 820 822 824 825 826 827 828 829 830 830 831 832 832 833 833 833 834 834 834 835 835 835 836 836 836 837 837 837 836 836 835 834 834 833 833 832 832 831 831 830 829 829 828 827 827 826 826 825 824 823 822 821 820 819
791 790 794 800 803 805 810 813 812 812 812 811 810 811 811 811 812 812 812 813 814 815 816 816 817 818 819 819 819 820 821 823 823 825 826 828 829 829 829 830 831 831 832 833 833 834 834 834 834 835 835 835 836 836 836 836 837 837 836 836 835 835 834 833 832 832 831 831 831 830 830 829 828 827 827 826 825 825 824 823 822 821 820 820 819 817
792 793 798 803 807 810 813 814 813 815 816 815 814 813 813 814 814 814 814 815 816 817 818 819 820 821 821 822 822 822 824 826 827 827 829 830 831 831 831 832 832 833 833 834 834 834 835 835 835 835 835 836 836 836 836 836 836 836 836 835 834 833 833 832 832 831 831 830 830 829 828 828 827 826 825 824 823 823 822 822 821 820 819 818 817 816
795 799 803 806 810 812 812 811 810 812 817 818 816 815 816 816 815 816 817 817 818 819 820 821 822 823 823 823 824 825 828 829 830 830 832 833 833 834 834 834 834 834 834 834 835 835 836 836 836 836 836 837 836 836 836 836 836 836 835 835 835 834 833 833 833 832 831 831 830 829 828 827 826 825 824 823 821 820 819 819 819 818 817 815 814 814
797 800 801 804 808 808 807 807 807 808 813 817 816 815 816 816 817 818 819 820 821 821 822 823 824 825 826 827 826 827 830 832 832 832 834 835 835 835 835 835 835 835 835 835 836 836 836 837 837 837 837 837 836 836 836 836 836 836 836 836 836 835 834 834 833 832 832 831 830 829 828 827 826 824 823 822 821 819 817 816 815 815 814 813 812 811
Wind_Speed
4 3 5 7 5 4 5 6 7 6 4 6 6 5 5 5 6 7 9 8 2 3 6 9 10 11 15 15 13 11 5 10 12 12 10 10 10 9 11 11 8 7 4 11 14 16 19 22 29 37 37 33 31 28 26 28 28 27 27 27 25 24 25 26 26 25 24 24 22 21 20 19 18 18 18 16 13 11 9 8 7 7 7 8 8 7
3 6 8 7 6 6 7 8 7 7 7 7 6 6 7 6 7 9 11 8 2 3 6 9 10 12 16 15 14 11 6 7 12 14 13 13 12 11 12 11 8 7 10 16 20 26 31 28 30 35 33 32 31 28 29 31 29 28 28 27 26 25 25 26 25 24 24 24 22 21 21 20 20 20 19 17 14 12 10 8 8 7 7 8 6 5
2 6 9 8 7 7 7 7 7 7 7 6 5 5 6 6 6 11 9 4 1 4 5 10 9 12 17 15 14 13 9 7 11 17 18 17 14 12 12 10 10 12 14 16 16 21 29 30 30 32 32 32 29 26 29 31 29 28 29 28 28 28 27 26 25 24 24 23 21 21 21 20 20 19 17 16 14 12 10 9 8 7 6 7 5 4
4 7 9 9 7 7 7 8 7 6 5 5 5 4 6 7 5 7 5 4 5 4 5 9 8 9 13 11 10 12 7 3 9 18 20 19 18 15 11 8 12 14 15 15 12 13 18 23 26 26 28 30 27 21 20 24 27 28 29 30 30 30 29 27 25 24 24 23 21 21 20 19 18 17 16 16 15 13 11 11 9 6 6 6 5 4
9 11 6 6 7 8 8 8 6 5 5 5 7 6 7 9 8 7 4 5 7 6 4 3 2 6 7 7 9 8 2 2 6 14 15 14 14 11 9 10 12 14 15 15 13 11 13 18 23 25 28 30 33 30 25 24 26 27 28 30 30 30 28 27 26 24 24 24 23 21 18 18 18 18 19 18 17 15 12 11 8 6 5 5 6 7
12 13 5 6 8 8 8 9 7 7 5 6 6 9 12 13 11 7 6 6 6 7 4 4 2 6 5 4 8 4 1 2 6 12 15 13 9 9 10 12 13 12 13 13 13 12 13 17 21 24 26 28 31 34 33 31 28 27 28 29 29 29 28 28 26 25 24 24 24 22 22 24 23 22 21 20 19 15 12 10 8 6 6 6 7 8
9 10 6 8 9 8 9 9 8 7 5 6 6 9 13 12 8 5 5 3 1 5 5 4 2 5 5 2 6 3 2 4 5 9 12 12 9 9 9 11 13 12 12 12 13 13 14 17 18 19 24 27 29 31 33 33 31 29 29 29 29 29 29 28 26 25 25 24 23 25 27 28 26 24 22 20 19 15 13 11 9 7 8 8 8 8
7 8 7 9 8 7 7 8 9 9 7 6 6 7 9 7 6 5 3 3 3 5 6 2 4 2 3 4 5 1 4 6 7 8 9 9 10 10 9 11 14 13 11 11 12 12 13 16 19 20 23 25 27 30 30 30 31 31 31 30 29 29 29 28 26 26 24 24 26 28 29 27 25 24 22 22 20 17 15 13 10 8 8 8 8 7
5 8 9 9 8 6 7 10 12 9 7 8 8 8 7 6 6 4 3 4 3 2 7 6 2 2 4 5 4 3 5 3 6 10 9 10 11 12 11 12 13 12 11 12 12 11 13 16 20 24 26 25 27 30 30 30 31 32 33 32 30 30 30 28 26 25 25 26 29 29 28 26 24 23 23 22 20 18 17 15 12 9 8 8 7 7
5 7 8 8 7 7 9 13 13 11 8 7 7 7 4 2 2 2 3 3 1 0 6 8 1 1 4 5 5 4 4 1 3 6 6 10 12 12 13 13 12 10 11 13 13 12 15 20 24 27 28 29 32 36 38 38 37 37 36 33 32 31 30 29 27 26 27 28 28 28 27 26 25 24 23 22 21 20 18 16 14 11 10 9 8 8
8 7 6 5 7 8 10 9 11 14 11 4 4 4 2 3 2 1 2 2 2 2 7 9 3 3 3 5 3 1 1 3 7 8 8 11 12 11 12 12 12 11 10 12 12 12 16 22 26 29 29 30 33 35 37 38 37 37 36 34 33 31 29 28 27 28 29 29 27 27 26 25 25 25 24 24 23 20 18 17 16 14 13 12 10 10
8 7 6 5 7 8 7 5 4 7 6 4 3 2 1 4 4 2 3 4 3 4 7 7 4 6 2 4 3 5 6 3 9 12 13 14 12 11 11 11 10 10 10 10 10 10 12 15 19 24 25 25 25 26 27 30 31 32 34 34 33 30 27 27 28 29 29 28 27 27 26 25 25 25 26 26 23 20 19 18 18 16 15 13 11 11
5 6 6 5 6 5 6 4 3 2 1 3 3 5 2 3 2 1 3 1 3 5 6 5 4 4 4 5 4 8 8 2 7 12 16 18 16 14 12 10 9 9 10 9 9 10 10 10 12 16 18 17 18 22 25 27 29 30 30 31 30 28 26 26 27 29 28 27 26 25 24 25 25 25 25 24 22 19 18 18 18 16 14 13 11 10
5 6 5 3 5 3 6 4 2 2 1 3 3 4 4 2 0 1 3 1 2 4 6 4 2 1 3 2 7 8 7 3 9 12 12 14 15 14 12 10 9 9 9 9 8 9 8 7 10 14 16 16 16 18 21 24 26 26 26 27 29 27 26 26 27 27 26 25 24 22 23 24 24 24 22 21 20 19 17 16 16 14 13 12 10 9
3 5 4 3 3 3 5 5 6 5 2 3 4 5 5 4 4 3 3 2 3 4 4 3 1 1 1 3 8 7 6 6 11 14 14 13 11 10 9 8 9 8 8 7 7 7 7 7 11 15 17 16 14 14 16 19 22 24 25 28 30 28 26 26 27 26 24 23 23 22 22 22 22 21 19 19 19 18 15 14 13 13 13 12 11 9
4 5 7 6 5 6 6 5 6 6 1 4 2 5 3 5 6 2 2 4 3 1 1 2 0 1 3 3 8 7 10 11 9 12 15 15 12 11 9 6 7 7 6 7 6 7 9 9 13 16 17 16 14 14 15 16 19 22 25 28 29 28 27 26 26 25 22 21 22 22 21 19 20 20 18 18 18 16 14 13 13 14 14 13 12 12
2 5 7 4 2 5 8 7 5 6 3 2 1 2 5 5 7 3 1 1 2 2 1 1 3 2 2 4 10 9 11 12 9 9 11 12 12 13 10 7 7 6 6 7 7 7 8 10 12 14 17 17 16 15 15 16 18 20 23 26 28 28 27 26 25 24 22 21 22 21 18 17 20 19 17 17 17 16 14 12 13 14 15 15 14 13
3 5 7 4 5 6 6 6 3 5 6 3 1 4 3 1 4 4 1 2 3 2 3 2 4 2 2 2 7 9 8 10 8 7 8 8 10 10 9 8 6 5 6 6 7 8 7 8 11 13 16 18 18 17 17 18 19 20 24 27 29 29 28 28 26 24 22 21 21 18 14 17 20 19 16 17 16 15 14 12 13 16 17 16 15 14
3 4 8 6 5 5 1 1 3 4 2 4 4 2 3 1 1 1 2 1 2 2 2 3 1 1 1 1 4 7 4 7 8 7 6 6 8 9 8 8 6 4 5 5 6 7 7 9 12 13 15 16 17 18 19 20 19 20 21 23 26 28 29 29 26 23 21 20 20 16 13 17 21 18 16 16 16 16 14 12 14 17 18 16 14 13
1 2 5 6 3 1 4 3 1 6 6 1 1 1 2 3 3 2 2 3 4 3 1 2 2 1 2 2 0 3 4 4 7 8 7 7 8 8 7 7 5 5 5 5 5 4 5 7 9 11 13 15 16 17 17 17 16 17 17 18 20 23 23 22 21 20 19 18 19 15 13 18 21 19 18 17 16 15 13 12 15 17 16 14 12 12
2 1 4 6 4 1 1 1 2 2 4 2 1 2 1 2 2 2 0 1 4 4 3 1 0 3 4 1 3 3 3 4 5 7 7 7 8 7 6 6 5 5 5 5 4 3 3 6 9 9 9 12 12 12 15 15 14 15 16 16 16 14 14 15 16 17 18 18 17 15 15 18 19 18 18 17 15 14 13 13 15 15 13 12 11 12
1 1 3 4 4 2 3 3 5 8 5 4 3 1 1 3 3 2 1 2 2 4 4 4 2 4 4 0 3 4 3 3 5 7 7 6 6 5 4 5 6 6 5 4 4 5 7 9 12 12 11 11 11 9 11 13 12 13 13 12 11 10 10 12 13 14 15 16 16 14 14 16 19 20 19 18 15 14 14 14 14 14 11 11 12 12
2 2 1 2 3 2 5 3 8 9 7 7 4 3 1 2 3 5 4 2 2 3 2 4 3 2 3 2 3 3 4 5 6 8 8 7 7 7 5 3 4 5 5 5 5 7 8 9 12 13 11 9 10 9 10 11 10 12 13 12 12 13 13 13 14 14 14 15 13 10 6 5 10 16 18 19 16 14 14 14 14 13 11 11 13 13
1 3 2 2 3 3 2 2 8 8 6 6 4 4 3 1 1 5 5 3 3 2 2 3 2 1 1 2 3 1 3 6 6 6 9 8 7 10 9 7 6 6 6 6 6 7 9 11 13 14 11 8 7 9 11 12 12 12 13 13 16 18 17 16 16 15 14 13 10 9 8 6 7 11 13 15 15 15 14 13 14 12 11 13 15 15
0 0 1 2 2 3 3 1 4 6 5 3 2 4 4 5 3 1 1 3 3 4 5 5 2 2 2 3 3 2 4 8 7 5 8 9 7 9 9 8 7 6 6 7 8 8 9 10 12 12 10 10 10 11 12 13 13 12 11 11 11 14 15 16 15 13 12 10 9 9 10 11 13 13 10 8 11 14 13 12 13 12 12 14 16 17
2 2 3 3 3 3 3 4 2 1 2 2 3 5 7 9 8 2 2 4 2 3 3 5 4 2 3 5 4 3 6 9 7 5 8 9 9 10 10 8 8 8 9 11 10 10 10 11 12 12 12 13 13 12 13 14 13 12 12 11 9 9 10 11 11 10 10 9 10 11 10 12 13 11 8 7 10 12 12 13 13 13 13 14 15 16
3 2 2 5 5 4 5 5 3 3 4 1 1 6 8 7 7 4 3 3 2 2 3 2 6 7 6 7 6 4 6 7 6 7 10 11 11 12 10 9 9 10 11 11 11 12 12 12 12 14 15 15 14 14 15 14 14 13 13 12 10 9 9 10 9 10 10 10 10 9 10 12 12 9 8 10 11 12 13 13 13 13 14 14 13 13
4 3 3 2 2 2 4 3 1 3 6 5 3 5 6 6 8 8 4 2 2 5 2 3 9 11 8 7 7 6 6 7 6 8 11 11 10 10 10 11 12 12 11 12 12 13 13 11 11 15 17 17 18 18 17 15 13 13 13 12 10 9 9 9 10 11 11 10 10 9 10 12 14 12 11 11 12 14 15 13 12 13 12 13 14 13
4 2 4 3 2 4 1 2 3 4 5 5 5 5 5 6 8 8 2 2 1 3 4 8 10 9 8 7 6 6 7 9 8 9 12 12 10 11 12 13 13 12 12 13 12 11 11 10 11 14 18 20 22 22 21 19 17 15 13 12 11 11 10 10 11 11 9 8 9 9 9 11 14 15 13 11 11 13 13 12 11 11 12 13 13 11
4 2 3 3 2 6 7 5 5 5 6 8 7 6 5 5 7 8 5 4 5 3 5 11 9 5 4 5 6 7 7 7 8 9 12 13 12 12 13 13 12 11 12 12 10 10 9 9 11 15 19 22 24 23 23 23 22 19 15 12 13 13 12 12 13 12 9 8 7 7 7 9 11 10 8 6 7 8 11 12 9 7 11 14 14 12
2 1 2 2 3 5 8 8 7 5 6 8 9 9 9 6 5 7 5 6 8 6 6 10 9 5 4 5 8 8 7 8 9 10 11 10 11 13 13 13 12 11 10 10 9 10 9 10 12 15 17 20 22 23 23 24 25 25 21 17 16 16 15 15 15 14 11 8 6 7 7 6 7 6 4 4 6 9 11 13 11 8 7 8 11 14
1 1 1 3 3 2 5 7 6 3 5 8 9 10 10 6 1 3 2 3 6 7 7 8 6 3 3 7 10 8 8 10 11 10 10 8 8 12 14 13 12 11 10 10 10 11 11 11 13 14 15 19 24 25 24 24 27 27 26 24 23 23 24 25 24 22 19 15 12 11 9 7 6 4 2 2 4 7 6 7 11 11 9 5 5 9
2 3 2 2 2 1 5 5 4 2 3 4 5 6 7 5 2 2 4 3 4 7 7 4 3 3 3 8 12 10 9 11 9 8 8 8 8 10 11 11 11 11 10 10 10 10 11 12 12 14 17 20 22 22 24 27 28 27 25 24 25 26 27 29 28 28 27 25 22 20 17 14 13 10 7 6 3 1 2 5 9 11 9 5 2 2
2 4 3 2 2 1 4 4 4 2 2 1 2 4 6 5 1 6 6 6 6 4 6 6 6 6 5 8 11 11 9 8 6 5 5 5 6 8 9 10 10 9 10 9 9 10 11 13 13 15 19 21 21 21 24 27 27 25 25 25 25 26 27 28 28 27 27 27 25 24 23 22 21 19 16 14 13 12 9 6 2 2 4 3 3 5
4 4 2 2 3 1 1 3 3 0 2 1 2 5 6 4 4 9 8 8 9 5 9 12 9 8 9 9 10 12 10 7 7 7 7 6 5 6 9 9 8 9 9 8 9 9 11 14 15 16 18 19 21 22 24 25 25 25 26 26 26 27 27 27 28 27 25 25 24 23 22 22 21 20 19 18 17 17 17 15 13 12 9 5 3 6
4 3 2 2 2 2 2 3 2 2 1 2 4 6 6 5 5 7 7 9 10 5 7 12 9 8 10 11 11 12 10 7 7 8 7 7 6 6 7 7 7 7 8 8 9 10 12 14 16 17 17 17 19 22 22 22 23 24 24 24 24 26 26 26 27 26 24 24 23 21 21 20 20 19 19 18 17 17 17 17 16 15 13 10 7 6
4 4 3 2 1 2 3 2 2 1 2 4 4 3 2 2 3 2 3 4 9 5 6 13 11 10 10 10 11 13 11 9 9 6 5 4 5 5 6 6 6 8 9 11 12 13 13 14 15 16 16 17 19 21 19 18 19 21 22 22 23 24 25 25 26 24 24 23 22 21 21 20 20 20 19 19 19 19 19 18 17 16 15 13 12 11
5 3 3 2 1 2 3 3 2 1 1 2 3 4 2 4 4 1 3 2 7 5 6 11 13 12 12 11 11 11 8 8 7 1 3 2 2 4 6 6 7 10 12 14 15 14 13 14 14 14 16 18 19 19 18 18 18 20 22 22 22 23 24 24 23 22 23 23 22 21 21 20 20 21 21 21 21 21 21 20 19 18 17 16 16 15
8 4 3 4 2 2 3 3 2 1 2 3 5 7 3 4 4 2 3 2 3 4 5 9 11 10 11 10 9 7 5 6 4 3 3 2 2 3 5 5 7 10 11 13 15 15 14 13 14 15 17 19 19 17 16 17 18 20 22 22 22 23 23 22 20 20 21 21 20 20 20 20 20 20 20 20 21 21 21 21 20 19 18 18 18 17
8 5 4 4 2 2 3 2 1 1 1 3 6 8 6 4 1 3 1 2 2 5 5 8 9 7 7 6 4 2 4 5 6 5 4 4 4 5 6 6 9 12 12 12 11 12 12 13 15 17 18 18 17 15 15 16 18 20 21 21 22 22 20 18 17 17 17 17 17 18 18 18 18 18 18 19 18 18 19 19 19 20 20 20 20 20
4 3 3 3 3 3 4 2 1 1 2 4 7 8 6 3 1 3 2 3 3 6 5 7 8 6 4 4 3 2 3 6 8 7 6 5 5 6 8 10 13 15 16 15 12 10 11 12 14 16 16 16 15 15 16 17 19 20 20 21 22 20 18 16 15 16 16 17 17 17 17 17 17 17 17 17 17 17 17 18 18 18 19 19 19 19
2 2 3 2 2 2 3 2 1 0 2 6 7 7 3 2 2 2 1 1 2 5 5 5 6 6 5 5 6 7 7 8 9 8 6 6 6 6 8 11 13 15 17 17 16 13 13 14 15 14 13 13 14 14 15 17 17 16 17 21 22 19 16 15 15 16 16 17 18 18 18 17 17 17 17 17 18 17 17 16 15 15 16 17 17 17
1 2 2 2 2 2 3 3 2 1 4 9 7 4 4 2 2 1 2 5 5 5 6 6 5 7 9 8 8 10 10 9 9 8 7 7 7 8 11 13 13 14 15 17 16 14 13 13 13 12 11 10 10 11 12 13 14 14 16 20 19 16 15 15 15 15 16 17 18 18 18 18 17 17 17 17 18 17 17 17 16 15 15 17 18 17
2 1 2 0 2 1 2 2 1 2 4 8 4 2 2 2 1 3 4 6 6 5 5 6 5 5 9 10 10 10 10 9 8 8 8 7 7 9 12 14 14 14 14 15 14 13 12 11 10 9 8 7 7 7 7 8 11 14 16 17 15 14 14 15 15 16 17 18 18 18 18 17 16 16 16 16 17 17 18 19 19 18 18 18 18 18
2 3 5 2 2 3 3 3 2 2 2 6 6 5 4 4 5 6 7 8 6 5 4 6 6 6 7 10 10 9 8 8 8 7 7 7 7 9 12 14 15 15 14 12 11 11 11 9 7 5 7 7 7 6 4 7 11 14 14 13 13 13 14 15 16 17 17 17 17 17 16 15 15 15 16 17 18 19 20 20 20 19 19 19 19 18
1 4 5 4 4 5 6 4 4 4 5 6 6 5 6 6 5 6 9 8 6 5 6 6 7 7 7 8 9 7 6 7 7 7 7 7 7 9 13 15 15 14 13 11 9 8 9 6 5 7 10 12 13 12 12 12 13 13 12 11 11 13 14 14 15 15 15 15 15 14 14 15 16 17 19 19 19 19 18 18 18 19 18 18 18 18
2 3 4 4 3 3 4 4 4 5 6 6 6 6 6 6 5 6 7 7 6 7 8 7 8 8 7 8 8 7 7 7 7 6 6 6 7 9 12 13 13 13 12 10 7 7 8 7 8 11 13 14 14 14 14 14 13 12 10 11 12 14 15 16 16 15 15 15 14 13 14 16 18 20 20 20 19 18 18 18 19 19 19 20 20 19
1 3 4 4 3 3 3 4 5 5 5 4 5 5 5 6 6 5 6 6 6 7 8 8 9 7 5 6 7 7 8 7 6 6 6 6 7 9 11 12 12 11 10 8 7 7 7 7 9 11 13 14 12 12 11 11 11 10 11 13 14 16 19 19 18 16 15 14 13 14 15 17 18 19 19 19 19 20 21 21 20 19 20 20 19 20
2 3 3 3 4 4 4 6 6 6 5 4 4 5 4 4 6 6 6 6 7 7 7 8 8 7 6 6 6 8 9 8 7 8 7 5 6 9 10 11 11 9 7 8 8 6 5 5 7 10 13 13 10 9 10 10 10 11 13 15 17 19 21 20 16 14 14 14 14 15 17 17 18 19 20 21 21 21 21 20 19 19 19 18 17 17
3 3 2 4 5 2 3 5 6 5 3 2 4 5 5 5 6 6 6 6 6 7 6 7 8 9 9 10 11 10 8 7 10 12 10 7 9 10 10 11 10 7 7 8 7 6 7 7 8 10 12 11 9 9 9 9 11 12 14 16 17 18 18 16 14 13 13 14 15 16 18 19 20 21 21 21 21 21 22 21 19 18 19 19 17 16
2 3 3 4 4 3 5 6 5 5 4 4 5 6 6 5 6 6 5 5 5 6 7 7 8 8 9 11 15 16 10 8 12 14 11 9 11 11 11 11 10 9 9 9 8 9 9 10 11 11 9 8 9 9 8 9 10 12 14 15 16 15 13 13 13 13 14 15 16 17 18 20 20 20 20 20 20 22 23 24 23 21 20 20 19 18
Wind_Direction
154 192 241 227 225 211 227 226 221 255 266 258 280 271 261 267 271 274 273 277 235 227 257 243 242 241 242 242 237 239 182 150 166 161 165 173 170 173 184 194 176 152 110 80 103 106 87 86 92 98 110 128 146 148 148 159 164 167 175 180 179 173 171 172 171 172 173 175 177 181 186 188 186 184 181 179 178 180 188 191 193 190 182 188 196 203
144 201 236 228 210 204 222 227 223 244 250 251 263 272 279 270 270 275 273 284 240 201 259 250 241 245 241 236 236 231 181 161 165 155 166 176 178 184 188 184 148 108 82 81 88 88 89 95 101 110 126 146 156 158 161 162 161 164 173 179 178 174 175 178 177 176 176 177 179 180 182 180 178 178 179 180 180 180 184 189 189 180 176 184 189 196
227 232 240 229 211 207 226 232 222 234 241 245 247 259 271 264 278 275 270 311 265 203 262 260 242 243 241 232 232 227 202 190 170 160 170 177 178 186 188 172 127 106 99 99 98 102 113 122 125 131 143 154 159 165 167 161 157 162 170 176 177 177 180 182 183 182 179 178 179 178 174 173 175 178 181 180 176 174 173 172 172 166 168 178 178 176
238 252 234 220 212 204 232 244 235 244 249 239 238 246 258 256 266 265 276 345 301 245 246 260 248 239 246 240 239 236 216 189 171 170 173 175 177 181 178 147 119 116 114 111 107 111 120 123 126 135 144 148 153 165 169 160 159 164 170 175 178 181 183 182 183 182 180 177 175 173 172 175 177 176 178 176 171 169 164 161 163 156 151 155 153 139
237 251 215 187 210 206 225 244 236 239 258 247 229 225 248 255 244 245 290 329 317 307 262 252 280 254 254 242 243 255 253 112 160 169 171 175 176 162 126 107 114 119 120 123 122 118 118 122 131 140 146 151 155 163 170 168 167 168 172 176 180 182 180 179 180 180 180 177 173 174 173 172 167 159 161 163 163 165 161 158 160 159 155 147 136 118
243 249 203 188 220 208 218 242 228 203 233 264 237 219 233 248 249 255 301 327 346 319 284 86 44 278 293 237 231 263 8 112 152 161 164 171 158 118 104 111 118 117 122 127 125 124 127 134 141 144 150 157 159 162 167 170 171 173 175 179 180 180 177 178 180 179 178 176 178 180 170 160 154 150 155 159 159 161 158 155 156 156 157 158 144 121
244 241 199 209 221 207 218 241 229 186 194 259 241 216 224 234 239 247 283 298 302 274 276 76 121 258 319 296 234 244 72 102 139 153 157 161 140 116 120 123 122 125 129 125 123 129 137 143 147 150 159 163 162 162 164 166 170 174 178 181 182 179 177 179 179 177 178 179 184 181 168 158 155 155 159 161 158 155 154 155 152 137 127 135 140 130
235 233 214 215 214 207 218 241 229 179 171 244 235 207 214 214 215 229 252 239 229 271 302 4 125 167 303 278 251 221 73 85 128 146 155 153 129 117 121 122 128 133 131 124 125 135 144 152 153 157 167 168 162 161 161 162 167 173 178 183 185 182 179 180 178 177 180 180 178 174 165 160 159 159 160 160 157 154 153 155 153 139 121 119 122 124
231 221 219 213 206 206 213 231 228 180 177 240 224 203 218 215 207 224 252 254 261 312 305 304 87 101 277 275 303 29 58 56 138 147 155 142 119 118 123 125 129 130 126 125 131 143 152 157 158 161 168 167 162 161 161 162 167 174 180 184 185 184 182 180 178 180 182 179 174 170 165 162 160 160 158 158 156 155 157 158 160 157 141 129 122 123
248 228 228 212 200 210 216 227 226 197 202 234 211 202 227 226 192 211 241 256 0 71 261 275 307 102 272 288 322 23 55 19 125 116 121 118 115 124 128 130 134 129 127 133 145 158 159 162 164 165 168 168 167 168 169 169 173 177 180 183 185 186 185 182 182 183 181 177 174 171 167 163 160 157 156 157 157 159 163 162 162 163 153 144 140 139
260 265 259 227 206 209 210 222 219 203 203 193 177 205 283 334 25 38 246 106 84 252 252 255 219 137 274 292 300 312 261 160 125 103 102 111 118 128 131 136 141 136 138 147 155 160 161 165 167 165 168 172 173 176 175 172 173 176 178 182 184 187 187 185 185 183 181 178 177 175 172 166 160 155 155 157 158 161 165 161 159 160 156 151 147 145
281 277 261 241 223 203 192 213 218 197 192 154 138 127 5 334 15 28 343 70 132 252 258 241 171 121 210 271 278 279 277 199 144 136 133 130 128 134 138 139 139 139 143 148 152 156 160 167 170 165 167 174 178 180 177 169 169 173 178 181 183 186 188 188 186 183 182 180 179 178 175 169 163 160 160 161 162 164 164 160 158 158 156 151 148 148
296 262 252 257 244 194 161 209 278 0 68 121 93 83 98 293 345 349 306 103 187 245 255 232 129 108 223 245 292 303 305 301 139 140 141 140 140 143 144 139 138 141 144 149 155 160 162 166 168 162 161 171 181 181 175 168 169 175 178 179 181 185 188 187 185 182 182 181 180 179 175 170 167 166 167 167 166 166 164 164 163 161 159 156 153 153
293 290 286 264 256 191 138 161 254 313 22 133 132 122 148 202 122 269 274 288 241 242 257 255 132 147 263 314 335 331 336 50 112 115 119 129 138 142 139 135 137 145 153 159 161 158 155 157 160 157 160 173 185 182 172 168 171 174 175 177 180 186 188 186 183 181 181 183 182 178 173 171 171 173 174 172 169 165 164 168 171 169 167 167 165 157
228 294 285 212 234 194 159 172 177 178 178 186 177 141 155 173 152 205 227 204 251 246 277 304 151 174 125 0 335 349 23 53 100 106 105 111 117 119 116 124 141 151 156 155 154 143 133 148 166 163 164 173 181 176 170 171 174 173 175 178 181 185 187 186 183 181 183 183 182 178 174 174 177 179 177 174 171 169 169 174 177 175 171 169 169 166
188 245 255 236 223 183 187 206 165 139 193 244 154 107 181 196 154 165 193 167 196 207 355 344 113 172 124 47 347 25 59 50 70 97 107 114 115 112 112 130 149 152 148 143 146 137 129 154 176 171 163 166 172 176 177 178 178 178 179 180 181 183 185 185 183 183 185 182 179 178 178 180 183 182 177 172 171 169 171 179 182 178 172 168 166 167
185 251 272 287 280 202 198 206 169 147 183 255 72 154 225 187 134 128 254 42 81 133 281 24 93 16 47 40 354 12 63 57 50 77 99 110 116 119 125 145 160 158 149 143 142 139 138 156 173 171 163 163 169 176 181 184 185 185 184 182 181 181 184 185 184 185 185 180 177 178 182 186 186 183 177 169 169 169 172 184 189 180 171 169 169 168
204 253 283 292 292 267 216 203 206 172 163 144 169 218 235 65 96 110 138 15 40 158 268 5 98 47 21 47 335 344 53 67 56 68 86 101 114 119 124 138 156 160 151 141 134 135 138 147 164 170 167 167 171 175 181 189 192 192 190 187 183 181 184 187 186 186 184 179 176 175 181 188 186 183 176 170 173 176 176 184 186 176 170 170 171 171
211 242 286 274 254 279 285 151 293 300 227 175 191 175 102 125 241 84 145 159 93 156 290 339 56 68 62 149 305 323 22 79 86 91 96 106 116 117 116 126 140 145 138 130 126 137 148 152 162 168 163 162 170 178 185 191 195 198 197 191 184 183 186 188 188 185 181 178 176 175 181 185 183 180 176 175 178 178 177 178 173 169 169 170 173 176
291 222 282 288 246 279 24 46 331 312 316 322 213 269 91 140 174 159 164 160 141 146 192 334 359 4 244 225 267 336 353 66 105 114 117 121 120 115 113 119 126 124 120 119 118 131 158 156 154 156 152 151 161 171 177 181 187 193 196 192 188 187 185 183 182 179 177 177 178 178 182 182 181 181 178 177 176 175 174 173 168 167 168 170 176 181
3 144 246 294 313 64 53 329 78 27 327 3 103 267 339 97 130 159 147 110 127 136 151 159 314 277 257 236 98 74 15 30 89 102 103 111 115 112 112 117 124 128 125 124 114 94 91 96 93 98 113 121 130 148 159 166 177 184 187 189 188 183 171 166 168 171 174 176 178 183 186 183 181 180 177 173 174 174 171 169 168 168 169 171 175 179
11 139 203 283 322 87 186 243 85 85 72 78 98 289 223 143 134 136 227 305 88 126 154 157 173 261 278 351 107 110 86 57 73 87 82 73 81 92 113 132 137 137 131 120 101 81 74 82 83 74 73 96 109 123 143 156 168 173 173 175 174 162 151 152 157 164 170 173 175 180 184 184 182 179 175 172 174 176 172 170 169 169 170 171 173 179
144 107 101 258 256 181 181 162 89 87 83 76 61 3 23 117 111 131 188 236 60 86 118 116 126 246 307 24 85 97 105 101 90 98 93 68 55 52 41 48 89 99 94 77 70 75 77 84 87 78 72 92 114 116 123 136 146 148 146 144 138 134 139 149 155 161 165 164 161 147 120 132 163 167 169 173 177 177 174 172 172 171 172 172 174 179
88 81 37 303 296 311 256 112 68 51 54 65 27 358 24 345 171 159 180 168 131 136 107 83 91 226 281 66 90 77 95 91 75 83 92 82 69 64 50 31 49 80 91 79 71 74 80 80 79 77 69 58 69 82 95 114 123 121 125 132 130 128 135 144 148 154 158 152 139 123 108 103 137 157 165 172 177 177 175 174 175 175 172 173 175 178
302 100 73 53 0 339 304 280 43 26 35 67 343 337 9 7 5 171 159 85 127 193 154 130 173 231 178 122 132 164 101 79 58 53 83 90 88 83 73 55 56 79 88 80 73 68 72 76 74 76 73 58 61 70 78 96 112 115 119 132 133 124 124 130 139 151 160 153 139 137 143 155 167 168 164 172 178 176 177 180 180 179 178 178 181 184
140 143 110 108 162 180 199 224 216 63 42 37 344 354 18 23 16 7 142 95 138 225 122 123 172 191 136 129 135 137 110 98 91 86 88 89 86 81 75 65 59 65 66 62 63 60 56 59 61 62 61 61 71 78 76 87 109 120 122 129 137 130 122 127 141 153 156 154 150 149 151 161 165 154 146 173 181 173 180 188 186 185 185 186 190 193
99 74 97 124 155 179 190 221 229 113 101 108 11 17 24 27 23 38 93 95 154 147 49 109 157 140 139 151 140 118 103 101 105 101 92 85 80 78 76 73 67 66 65 62 62 60 54 51 51 50 49 53 62 69 73 85 100 107 108 111 119 125 130 139 148 148 147 147 153 166 174 169 164 153 156 180 182 175 182 189 189 192 195 196 197 199
88 25 7 86 160 217 196 209 312 90 115 137 134 58 34 34 40 50 48 344 131 115 63 192 154 139 154 166 144 127 111 100 98 95 91 87 86 86 84 78 72 69 67 63 60 61 59 54 49 47 47 50 56 59 61 67 78 88 97 103 108 114 124 135 138 136 141 148 157 170 173 168 172 177 175 175 176 178 185 187 190 201 205 202 202 207
99 34 342 337 313 324 0 87 55 70 96 95 102 94 72 70 74 74 46 304 170 150 172 173 156 143 152 153 135 128 119 114 114 106 100 99 96 92 88 82 75 70 70 68 64 64 64 59 54 52 49 48 51 54 53 51 54 62 75 86 93 95 100 113 121 122 127 142 153 158 159 165 177 182 175 162 157 167 179 184 196 218 222 211 205 205
93 66 339 327 359 6 6 24 33 43 72 69 57 50 51 75 98 96 80 76 89 95 132 140 136 112 110 129 123 111 104 105 104 99 100 102 100 96 90 87 82 74 74 75 72 67 64 61 57 54 51 47 46 48 49 48 51 57 66 75 78 78 84 98 106 106 106 116 132 140 147 158 167 171 161 132 128 154 176 178 184 220 225 214 210 207
56 77 318 0 52 15 1 8 17 37 83 70 42 23 15 20 80 98 94 87 76 59 89 116 114 84 70 96 98 92 85 82 81 88 94 95 100 102 97 94 92 87 82 80 76 70 64 59 55 52 49 48 49 50 50 51 55 60 66 72 71 71 76 83 85 85 86 89 95 102 110 119 135 147 140 131 167 195 199 187 184 205 215 204 209 210
98 139 317 50 70 359 346 9 25 72 95 59 28 9 360 351 87 109 97 112 112 114 116 114 113 112 104 94 84 71 71 80 83 90 96 96 103 106 103 100 97 91 84 75 68 65 60 54 50 48 48 50 54 55 54 57 61 62 65 71 74 76 78 77 76 76 78 78 74 72 73 73 85 103 101 126 192 216 227 205 201 219 227 198 190 205
137 130 132 85 87 329 327 358 34 89 94 42 359 342 332 300 253 58 35 42 99 127 138 139 119 109 118 109 97 80 75 85 87 90 99 109 111 103 101 102 100 96 90 82 73 68 64 57 50 50 52 50 51 56 61 65 66 66 68 72 75 77 76 74 72 72 73 74 73 71 70 69 67 65 61 56 64 130 212 205 209 228 240 220 192 234
58 107 126 113 115 205 314 358 40 76 137 179 310 333 319 293 120 89 64 23 19 74 116 115 102 92 88 99 103 96 84 78 71 63 71 92 106 102 96 93 93 96 94 89 84 77 73 69 61 59 61 56 50 53 63 69 71 72 74 75 74 74 72 70 68 66 65 65 64 63 64 66 65 65 65 62 62 69 74 84 118 276 296 279 275 284
67 86 104 87 104 146 342 37 54 125 182 198 323 343 335 328 80 90 76 36 18 45 98 103 105 100 88 87 95 96 87 71 56 44 33 31 50 87 96 90 89 93 93 91 89 85 85 82 72 65 66 64 57 55 59 64 66 69 70 69 69 68 66 64 63 60 58 57 55 53 53 55 57 57 55 53 54 57 55 52 50 45 38 29 313 284
113 114 107 87 86 106 80 69 110 199 296 351 345 351 354 358 28 55 55 26 0 358 103 111 111 103 101 104 104 98 95 85 66 44 28 30 36 57 80 87 92 92 87 87 89 89 91 89 83 77 73 69 63 59 57 59 62 65 64 60 60 60 58 55 53 51 49 47 44 41 41 41 42 43 41 40 40 40 38 35 34 33 33 30 23 11
112 120 107 78 67 106 108 85 105 127 2 0 353 356 29 6 330 16 75 7 344 354 117 125 121 117 118 120 117 115 112 93 68 33 2 32 56 68 75 79 90 97 99 99 96 92 88 84 83 80 78 74 68 62 59 59 62 65 62 55 52 52 52 49 45 43 43 39 34 30 28 26 25 24 23 23 23 23 21 20 18 16 13 8 7 9
73 113 130 122 67 94 109 104 94 88 312 293 285 284 191 187 233 180 109 354 345 16 112 132 131 131 133 134 136 138 121 86 79 30 310 6 66 89 90 85 89 98 102 100 96 92 84 75 70 71 73 73 68 62 62 64 62 62 60 55 52 52 54 53 48 44 43 40 36 31 27 23 19 16 13 11 10 8 5 5 5 4 2 359 354 351
47 49 86 91 67 63 91 108 121 150 226 239 272 289 277 218 222 114 76 339 353 45 95 123 127 136 143 148 156 153 116 91 119 204 235 207 158 112 104 96 84 80 79 82 85 82 74 69 68 68 67 66 63 60 61 62 61 59 56 54 55 55 56 56 51 47 46 43 40 38 35 31 28 24 20 15 10 6 1 357 354 351 351 351 349 345
36 23 39 64 68 71 85 87 94 136 253 287 294 296 295 276 219 113 116 252 145 114 115 121 126 138 148 156 167 130 106 130 155 181 190 174 145 109 101 90 77 70 64 66 72 69 63 63 65 61 55 52 50 49 51 56 61 62 56 51 51 49 46 46 45 47 48 45 41 39 36 34 31 30 27 22 16 11 6 359 352 347 344 343 341 338
28 19 41 76 70 62 88 99 71 250 290 316 307 296 301 325 62 131 203 243 155 138 136 127 130 137 140 154 154 90 87 126 139 147 156 148 120 102 99 93 86 78 70 66 68 68 68 69 67 60 49 39 33 35 42 51 58 59 52 45 43 38 34 37 42 46 47 42 37 34 30 26 24 22 20 16 11 9 7 3 358 353 349 345 341 337
24 18 20 61 49 35 83 93 75 195 327 331 314 303 332 51 132 190 272 320 124 133 118 105 117 119 108 114 118 108 105 112 120 127 131 126 118 110 105 99 90 81 74 70 71 75 78 76 72 64 47 31 27 34 42 47 47 45 41 42 42 40 39 41 39 36 32 27 25 23 19 15 12 9 8 6 4 3 4 5 4 1 360 357 351 346
68 63 27 27 27 41 64 51 66 173 317 329 324 329 13 62 164 173 32 38 58 84 89 84 95 110 109 104 101 106 110 106 107 113 112 109 109 103 99 96 87 78 72 68 66 70 77 80 78 66 48 37 39 45 46 40 33 32 39 44 43 39 36 33 26 21 17 14 13 10 8 7 5 3 3 2 2 2 2 2 1 359 0 0 358 356
21 88 123 351 348 55 89 52 72 195 312 341 12 76 32 0 74 86 78 64 50 51 75 76 65 84 110 114 108 106 108 105 106 110 105 102 102 95 94 96 91 83 75 68 64 61 65 77 81 65 48 43 40 33 28 31 38 47 50 45 33 24 20 16 11 8 6 6 4 1 1 1 0 0 1 0 360 0 359 358 356 354 355 356 356 357
0 107 116 89 39 70 105 116 130 143 26 26 54 83 74 53 53 69 84 83 63 43 61 82 75 66 86 103 102 98 101 103 102 100 98 97 95 89 89 92 93 90 79 69 63 55 55 75 91 66 47 50 46 38 42 56 63 65 58 44 28 18 13 6 1 1 2 3 2 1 0 358 356 357 357 355 353 353 353 353 351 349 349 349 350 351
80 95 91 92 90 77 77 95 110 95 72 63 64 69 71 67 59 68 77 77 70 62 62 74 80 72 71 85 91 89 92 98 96 94 97 96 87 87 90 90 93 94 84 69 61 52 47 68 97 81 72 76 77 77 78 74 72 71 64 50 34 23 14 7 3 4 4 3 3 1 358 356 354 351 348 346 347 348 348 349 347 345 344 343 342 342
333 48 70 95 116 93 89 114 116 100 96 93 83 75 73 71 66 71 79 81 78 73 68 66 70 67 61 69 82 85 84 86 89 88 92 96 93 92 93 92 92 91 82 68 57 43 37 56 85 85 82 84 82 79 76 73 71 69 57 39 26 17 9 5 3 1 360 360 359 357 353 350 348 347 346 348 351 351 349 348 347 344 341 338 336 334
348 64 82 90 78 71 108 130 115 95 91 90 89 91 89 88 87 84 91 99 92 78 72 72 74 74 69 71 81 83 71 62 69 82 88 94 96 95 94 91 86 82 75 62 47 39 47 70 88 89 88 87 79 70 68 66 60 50 34 22 13 4 359 357 356 355 356 358 357 353 348 346 345 345 346 347 346 342 340 340 341 340 336 332 329 326
52 68 89 106 88 73 92 115 110 86 62 58 90 103 100 102 104 97 93 97 98 95 89 79 75 85 101 99 88 80 70 56 58 75 82 78 77 81 84 84 81 77 65 49 37 41 66 81 83 88 92 88 75 62 58 53 44 32 20 10 1 355 354 355 355 355 357 357 355 350 346 344 344 342 339 338 335 333 331 331 332 331 327 324 322 319
73 82 89 107 113 139 184 159 136 117 112 152 149 135 130 125 114 106 104 104 104 105 104 87 74 75 87 94 91 83 77 70 72 76 75 63 60 63 64 65 65 56 45 44 50 69 84 75 71 86 92 82 66 62 57 43 30 20 10 2 356 354 355 356 354 352 352 350 348 348 346 343 341 338 335 334 332 330 329 328 327 326 324 322 321 316
101 144 150 135 144 190 197 174 146 125 140 168 159 153 155 141 119 112 115 116 115 118 114 103 90 80 75 84 92 94 95 94 88 84 77 60 54 53 50 51 52 52 58 68 77 83 80 69 66 76 82 69 57 56 50 36 25 15 7 2 357 352 352 357 355 351 348 345 342 343 343 340 339 338 336 335 333 330 326 324 323 323 322 322 320 316